Location: São Paulo
(23.5507°S, 46.6334°W)
Time: 10:08:02
(UTC-03:00)

Transit 4A - Pass Details

Date: 22 February 2026
Orbit: 864 x 977 km, 66.8° (Epoch: 11 March)

Event Time Altitude Azimuth Distance (km) Brightness Sun altitude
Rises 01:05:31 0° 211° (SSW) 3,490 - -54.5°
Reaches altitude 10° 01:08:06 10° 217° (SW) 2,536 - -54.3°
Maximum altitude 01:13:40 47° 289° (WNW) 1,137 - -53.8°
Drops below altitude 10° 01:19:09 10° 1° (N) 2,494 - -53.3°
Sets 01:21:41 0° 7° (N) 3,428 - -53.0°
